Dewpoint
28 26 26 25 19 16 17 17 17 14 15 18 14 20 21 21 22 27 33 33 35 32 28 31 30 29 31 35 48 51 48 48 47 47 55 55 59 61 56 51 51 52 53 55 57 58 58 67 66 68 69 70 71 72 71 71 71 71 70 72 71 72 72 72 71 70 69 68 68 69 64 64 63 66 63 63 65 64 64 67 67 67 67 65 65 66
25 26 24 22 20 20 19 18 17 16 17 17 19 20 18 17 16 20 22 26 29 26 29 32 30 32 34 36 49 50 48 47 46 46 55 53 56 58 59 53 56 56 54 54 57 59 59 59 68 68 70 71 71 71 71 71 72 72 72 72 72 72 72 72 71 70 70 70 68 67 67 64 62 63 62 62 64 64 64 66 66 64 65 66 65 66
20 20 22 23 22 19 18 17 18 18 16 15 17 19 17 16 17 17 16 21 22 22 28 28 27 27 29 34 48 47 46 48 46 47 48 57 56 57 59 56 59 57 58 55 57 60 60 61 68 69 70 71 71 71 71 72 72 71 72 72 72 72 71 71 72 72 71 71 70 68 66 64 62 62 63 62 64 64 63 62 63 65 64 65 62 64
18 17 18 20 20 16 12 10 10 11 12 14 14 15 14 13 11 11 16 15 18 19 25 28 20 25 35 41 48 50 49 50 51 46 45 48 55 58 56 55 56 57 58 57 58 57 60 61 64 67 70 71 71 72 71 71 71 71 73 72 72 72 71 72 72 72 70 70 70 70 69 67 64 63 64 64 64 64 63 62 62 63 64 62 59 58
15 18 19 17 17 17 15 13 11 11 10 12 12 11 8 9 11 14 12 14 16 17 15 22 28 24 36 32 39 48 49 50 48 50 49 50 50 58 58 56 56 56 59 59 60 61 63 62 63 66 70 71 70 71 70 71 71 72 72 72 72 72 71 71 71 71 71 71 70 70 68 67 66 65 64 63 62 63 63 62 60 62 64 63 61 59
11 14 16 16 17 17 17 14 13 12 10 9 8 7 7 7 8 8 11 11 11 16 12 13 19 21 30 30 29 52 51 47 51 51 50 51 52 52 57 57 59 62 60 60 61 62 63 64 64 67 69 70 69 70 71 70 71 71 71 72 73 72 71 70 70 71 71 71 70 70 68 67 65 65 62 65 63 60 63 61 62 62 61 61 60 62
4 6 10 12 14 15 16 13 12 11 9 8 6 5 3 3 5 8 10 10 15 20 18 13 17 18 23 25 33 46 51 53 53 52 53 55 56 48 53 58 59 61 61 61 61 61 64 64 63 67 69 70 70 70 70 71 71 71 72 72 72 72 72 71 72 71 71 70 69 68 65 64 64 63 65 66 65 64 63 63 61 61 60 61 60 60
3 3 3 5 10 14 13 12 10 11 9 7 6 4 2 1 2 5 6 10 16 15 11 11 12 17 15 21 33 40 38 44 54 54 53 54 54 48 49 58 60 59 60 63 61 60 63 65 65 66 69 70 70 71 72 71 71 72 73 72 72 72 72 72 72 71 71 70 69 69 66 66 63 62 65 64 64 64 65 64 59 58 61 61 60 59
1 1 -0 2 8 10 11 10 11 9 6 4 2 2 1 2 5 6 7 7 9 10 13 9 10 17 21 28 28 32 31 36 42 53 54 56 53 51 51 51 57 62 62 62 63 61 63 64 67 68 69 69 70 71 71 71 71 71 73 73 73 72 72 72 72 71 70 71 70 69 66 66 67 65 66 64 64 65 63 59 62 59 57 58 59 60
1 4 5 4 5 5 8 9 7 5 2 2 -0 0 1 7 6 5 6 7 8 10 11 9 3 10 15 21 22 34 30 31 33 41 50 55 54 54 53 53 50 58 62 63 67 64 64 67 69 69 70 70 70 71 72 72 72 72 72 73 73 72 72 72 72 71 71 70 70 69 68 67 67 67 66 64 65 65 65 61 59 61 60 52 53 55
5 13 18 9 8 6 7 6 4 2 2 3 3 3 2 2 3 2 3 9 9 13 15 6 4 5 11 17 16 25 23 24 24 38 55 57 55 55 55 53 52 56 64 64 65 66 68 68 69 69 69 70 71 71 72 71 71 71 71 72 72 72 72 72 71 71 70 70 69 69 69 67 67 65 65 65 64 65 64 62 52 58 59 59 53 53
5 4 2 7 10 9 7 5 4 3 2 2 2 -1 -1 3 6 10 10 13 9 9 8 4 5 9 11 18 20 25 21 17 20 41 47 52 55 54 56 53 53 57 62 64 65 68 68 69 70 70 70 71 72 71 71 71 71 71 72 72 72 72 72 72 71 71 70 69 69 69 68 67 67 66 63 63 62 62 62 58 58 64 65 56 53 59
3 4 4 2 15 8 8 5 2 -0 -1 -2 1 5 1 8 9 7 12 8 7 9 9 6 9 11 14 20 16 14 16 18 32 42 32 43 57 57 56 56 58 61 59 64 65 67 69 70 69 69 70 71 71 71 71 71 70 70 72 72 71 71 72 71 71 70 70 70 69 69 68 68 68 67 65 64 63 61 61 58 57 60 59 58 58 53
-0 4 5 5 3 9 7 5 2 -1 -3 -2 1 4 7 8 7 9 7 6 4 2 4 6 11 11 14 14 19 13 28 30 34 40 41 41 44 48 57 59 56 58 63 66 65 66 69 70 70 70 71 72 71 71 71 71 70 70 71 71 71 71 72 71 71 70 70 69 69 69 68 67 67 66 64 62 61 59 61 61 59 55 54 61 53 51
0 1 -0 2 2 3 4 6 5 2 -3 -5 -2 -0 6 12 1 7 6 7 3 9 2 4 7 20 14 21 13 28 28 32 32 35 43 43 46 50 57 59 57 61 67 68 67 66 69 70 70 70 71 72 72 71 71 71 71 71 70 70 71 70 71 71 71 70 69 69 69 69 69 68 67 65 63 62 66 62 57 56 51 57 52 52 57 59
-1 1 4 3 2 2 3 6 8 5 2 -1 -2 -3 2 5 7 2 1 -0 -1 -1 2 8 6 11 17 20 24 24 24 31 35 39 48 50 49 51 55 58 56 60 63 66 66 69 71 72 72 71 71 72 72 71 71 70 70 70 70 70 70 70 70 70 70 70 69 69 69 69 68 67 66 67 64 68 66 64 60 57 53 57 59 55 54 58
3 1 0 0 4 5 3 5 7 7 4 -0 -4 -3 -4 -3 -2 6 4 0 2 2 7 1 1 3 11 28 27 28 28 29 33 42 50 56 55 55 57 54 54 57 66 66 66 69 71 70 69 70 70 71 71 71 70 70 69 70 70 69 70 70 70 70 70 70 69 69 69 68 67 66 64 61 59 57 57 54 55 59 55 51 50 51 55 54
2 2 3 4 0 3 4 4 4 3 3 1 -3 -6 -2 -3 -1 7 2 10 3 2 11 5 7 11 15 20 25 24 27 31 39 46 53 56 59 58 57 57 65 64 67 68 69 70 70 70 69 69 70 71 71 71 71 71 70 70 69 69 70 70 70 69 70 69 69 68 68 67 66 64 62 60 58 59 57 54 55 57 57 56 54 51 51 52
3 1 2 3 2 1 2 4 2 2 0 -1 -3 -4 -5 4 5 8 3 5 3 -0 7 3 8 11 23 26 21 26 35 38 44 49 51 56 61 63 63 64 65 66 67 67 67 69 70 70 69 70 70 72 72 71 70 71 69 69 68 70 69 69 69 70 69 69 69 68 67 67 64 61 61 60 62 60 57 57 53 51 50 51 59 55 56 56
4 3 5 5 2 1 1 1 3 -1 -1 -1 -1 -3 -1 2 4 9 6 14 18 9 3 13 9 31 24 35 42 39 42 45 44 47 50 57 62 63 65 65 65 65 67 68 70 70 70 69 71 70 69 71 72 71 70 69 69 68 69 70 69 70 70 70 69 69 68 68 67 65 65 65 68 65 58 56 54 50 50 49 52 55 50 50 52 53
6 16 6 3 2 1 1 2 0 1 -3 -4 -4 -5 -3 -1 -0 0 1 4 6 12 15 15 11 38 42 42 47 49 50 51 49 52 61 63 64 64 65 65 66 66 67 69 70 70 69 70 70 70 71 71 72 72 70 69 69 69 69 68 68 69 68 68 68 67 68 68 66 66 65 67 61 59 60 54 52 49 49 51 53 49 50 55 58 55
13 9 9 4 1 2 2 1 -0 -3 -5 -5 -4 -2 -6 -6 -0 4 6 -0 2 3 14 9 34 47 50 49 49 50 52 55 57 59 62 64 65 65 65 65 65 65 65 66 69 69 69 70 69 70 72 72 71 71 71 69 70 70 69 68 69 68 67 67 66 67 67 66 65 64 62 65 62 60 58 57 57 48 49 48 50 52 53 51 56 56
13 8 7 5 3 2 2 -1 0 -3 -5 -5 -5 -4 -3 -6 -3 2 11 9 4 5 3 3 19 46 53 52 54 54 53 56 59 60 63 64 65 66 65 65 65 65 64 66 66 67 69 70 72 72 72 72 71 71 71 71 71 70 70 71 70 69 69 67 66 67 66 66 66 70 67 67 62 55 54 53 57 53 48 47 50 52 52 49 50 51
43 8 7 7 8 6 5 -0 4 3 4 1 -1 1 -3 -5 -6 -3 1 8 8 9 7 11 36 48 53 55 55 56 55 56 61 59 64 64 64 65 66 65 66 65 66 66 68 69 71 72 72 72 71 71 71 71 72 70 70 69 69 70 70 69 69 69 68 66 66 68 68 66 62 58 58 57 53 53 54 53 49 50 51 52 53 58 56 52
8 18 13 13 15 14 8 10 4 3 3 -0 -3 -0 -0 -1 -1 -2 1 8 8 4 3 6 34 46 55 55 55 55 55 57 60 61 62 63 64 65 65 66 66 66 68 67 69 70 71 71 71 71 72 71 71 71 70 69 68 69 69 68 68 68 69 68 68 68 67 67 66 63 60 57 58 60 57 56 54 53 50 50 48 51 49 53 52 55
6 8 16 11 14 13 8 12 13 10 6 2 2 -2 1 -0 4 5 3 12 12 24 13 11 36 50 53 54 53 54 56 58 57 60 62 63 65 64 64 65 67 67 69 68 70 71 70 71 71 71 70 69 69 68 67 68 67 67 67 67 67 67 67 67 67 65 66 63 59 61 60 58 58 58 58 53 51 53 49 50 52 52 50 54 55 56
12 8 13 18 17 14 22 23 14 18 14 6 2 2 -0 1 2 7 7 10 8 21 24 37 43 47 47 47 52 51 55 55 59 60 62 62 63 64 65 65 65 67 69 69 69 70 70 70 70 69 69 68 67 67 67 66 65 65 66 66 67 66 66 66 66 66 63 60 57 58 55 53 52 53 53 50 52 52 54 51 49 51 54 57 57 55
24 13 12 11 13 12 10 14 13 17 14 11 10 4 4 9 6 8 6 9 33 13 18 41 47 39 43 46 50 53 55 57 59 61 61 63 64 64 64 65 65 67 70 70 69 68 69 69 69 68 67 67 67 66 66 66 66 65 65 65 65 65 65 66 65 64 63 60 57 57 53 54 51 51 57 58 59 57 51 50 54 55 57 59 59 55
15 12 11 11 9 7 8 10 10 11 11 11 11 9 11 13 13 14 14 14 12 14 24 49 48 42 43 45 47 53 56 57 56 59 62 63 63 64 64 64 65 67 68 68 68 68 68 68 68 67 66 66 66 65 65 65 64 65 65 66 66 66 65 66 64 63 60 58 58 58 57 57 54 54 58 61 60 59 58 54 54 58 58 58 57 54
26 13 13 10 11 8 8 9 8 4 7 7 8 7 5 8 12 13 12 11 12 22 43 45 51 47 47 49 52 54 55 55 55 57 61 63 63 64 63 65 65 66 67 68 67 67 68 68 67 66 65 65 64 63 63 63 63 64 64 65 66 65 66 66 63 61 59 58 58 58 58 59 57 56 56 58 57 61 61 57 58 55 56 58 59 52
20 19 24 11 14 9 7 8 3 2 6 8 6 10 10 10 11 13 14 14 19 27 39 35 47 49 54 57 60 62 62 59 61 61 63 65 63 63 65 64 65 65 66 67 68 67 67 67 67 66 64 63 63 62 62 63 64 64 64 64 65 65 65 63 63 61 59 59 59 61 61 59 58 58 61 59 59 60 61 61 57 59 59 58 58 55
21 17 15 16 15 14 9 5 4 4 5 9 11 12 15 13 16 16 19 19 23 29 38 41 44 45 52 56 59 61 59 59 59 61 62 64 63 64 63 63 65 66 66 67 68 67 67 67 66 65 63 63 62 62 63 63 64 64 64 65 65 65 65 65 63 61 61 60 62 61 60 57 59 59 61 60 61 61 61 59 58 60 59 58 57 60
22 19 18 13 14 16 14 6 4 8 13 12 12 15 18 18 21 19 20 21 31 34 36 35 44 46 53 55 56 56 56 58 59 60 61 62 63 62 60 63 64 65 66 66 67 67 66 66 66 64 63 63 63 63 64 64 64 64 65 65 65 65 64 63 62 62 61 61 61 61 60 62 59 60 59 60 61 60 61 62 58 59 58 59 58 59
31 19 16 20 18 16 14 8 12 14 15 19 21 19 20 19 21 22 23 24 32 31 38 37 42 52 50 53 51 54 53 54 55 61 62 64 63 62 61 62 62 64 66 66 67 66 66 65 65 64 64 63 63 63 64 64 64 64 65 65 65 64 62 62 62 61 61 61 61 61 61 61 60 59 60 60 60 59 58 58 59 56 56 59 61 62
24 23 18 25 15 15 17 16 18 18 20 25 20 24 23 22 23 23 26 25 30 33 40 40 46 49 49 49 51 55 55 55 57 57 60 61 63 63 64 62 63 64 67 66 67 66 66 65 65 64 64 63 64 64 63 63 63 65 65 63 61 61 62 61 60 61 60 60 60 60 61 60 60 59 59 60 60 60 58 58 58 57 58 56 59 61
21 21 25 20 17 18 17 20 18 21 24 21 22 22 24 21 19 21 22 34 30 28 34 37 45 52 52 55 56 58 58 55 57 61 62 63 63 62 59 59 61 61 65 66 67 67 66 65 65 64 64 64 64 64 63 63 64 64 62 62 60 61 61 61 61 60 60 60 60 60 60 60 60 59 60 60 60 59 59 59 60 59 61 59 56 54
21 24 20 17 26 17 19 20 21 30 26 22 21 23 26 29 28 30 31 46 33 32 40 44 51 51 56 57 59 58 58 57 60 63 62 63 63 60 58 56 63 64 66 68 67 67 66 66 65 65 65 64 64 63 63 63 64 63 61 61 59 61 60 60 60 60 60 59 59 60 60 59 59 58 59 59 57 58 58 58 59 60 60 59 57 57
30 22 28 24 23 20 19 20 21 26 26 28 26 26 27 24 26 28 33 32 35 42 38 45 55 55 57 58 58 59 60 58 57 58 61 61 60 61 61 63 64 66 67 66 67 66 66 66 66 66 65 64 64 64 64 64 64 63 62 61 60 61 61 60 59 60 60 59 59 60 60 60 60 59 58 58 59 56 59 58 60 60 60 60 59 59
17 21 32 19 20 19 20 19 21 25 33 33 27 26 25 27 25 28 28 38 47 45 48 49 52 56 57 56 56 56 53 51 51 57 61 60 57 60 64 66 64 66 67 68 67 66 66 66 66 65 65 64 64 64 64 64 64 62 62 61 60 61 60 60 60 60 59 59 59 60 60 59 60 59 58 57 58 57 58 59 59 59 62 61 60 60
16 14 18 21 20 22 21 22 22 28 29 30 26 24 23 24 29 28 25 34 46 43 43 46 51 52 54 55 55 56 54 52 52 57 55 55 58 64 65 66 66 67 67 69 68 67 66 66 65 64 64 63 64 64 64 64 63 63 61 60 59 60 60 61 62 61 61 60 60 60 60 58 60 59 59 58 60 60 60 61 59 61 60 60 57 56
16 16 16 17 18 24 32 21 22 30 28 25 23 25 24 25 25 23 30 42 47 45 47 48 53 55 56 55 53 55 58 58 58 59 60 62 61 65 66 66 69 68 67 67 67 68 66 65 64 64 64 64 64 64 64 63 63 62 62 62 61 60 61 62 63 63 62 62 60 60 60 59 61 60 60 59 59 58 59 60 60 60 59 59 59 59
19 20 23 20 18 20 22 21 24 34 38 35 33 27 31 29 29 44 47 51 49 46 48 49 55 53 53 54 54 60 61 64 64 55 58 59 59 63 65 65 67 67 68 67 67 67 66 65 65 64 63 64 63 63 64 63 64 63 62 62 61 62 62 64 64 63 63 62 61 61 60 60 61 59 58 60 60 60 60 61 60 59 59 60 60 60
24 21 21 21 25 20 24 25 22 26 44 34 28 29 36 31 48 53 49 45 41 49 48 50 50 57 55 57 60 61 61 63 61 60 60 63 63 62 63 65 66 67 67 66 66 66 65 65 65 64 63 63 63 63 63 64 64 64 62 61 62 63 64 64 63 63 62 62 61 61 61 61 59 58 55 58 59 60 58 60 60 60 60 60 60 60
39 23 24 24 25 22 22 24 30 38 46 37 32 43 45 52 50 51 45 41 42 43 50 49 53 54 55 56 61 62 63 63 63 62 64 64 64 66 63 65 66 68 67 67 66 65 65 65 65 64 63 63 63 63 64 64 64 64 62 61 63 63 65 64 63 63 62 62 61 61 62 60 59 58 58 59 60 59 59 59 59 60 60 60 60 60
46 31 49 36 40 44 41 46 45 47 46 34 32 46 44 44 44 43 43 38 53 47 50 57 58 55 55 58 62 63 64 64 63 63 64 64 63 65 62 64 65 66 66 66 65 65 64 64 63 64 63 63 63 64 65 64 64 63 62 62 63 64 64 63 62 62 61 61 61 61 61 60 59 60 59 59 59 58 59 58 59 59 59 59 59 60
39 43 52 42 39 43 42 44 41 38 34 34 33 34 34 39 44 44 43 57 53 52 49 56 51 51 55 59 60 63 63 64 62 62 63 62 62 63 63 63 64 64 64 64 65 65 64 64 63 63 63 63 63 65 66 65 64 64 63 63 64 64 64 63 62 61 60 60 62 62 62 60 60 60 60 59 59 59 59 58 59 59 60 60 60 60
29 30 30 31 45 35 39 46 37 35 35 33 33 37 39 38 43 45 49 53 53 51 50 50 52 54 58 59 59 57 64 62 63 59 58 60 62 63 63 63 63 63 63 64 65 65 65 63 63 63 63 63 63 64 64 65 65 65 65 65 64 62 63 62 61 61 62 61 61 61 61 60 59 60 60 60 58 58 57 58 58 58 59 59 58 58
32 34 32 32 34 34 42 42 39 40 46 47 47 46 41 41 49 50 52 51 53 51 51 51 50 53 54 55 56 58 62 62 64 61 58 60 64 64 64 64 64 63 65 65 65 65 65 64 63 63 63 64 64 65 64 65 65 64 64 64 62 61 61 61 60 57 59 58 58 59 58 56 58 58 59 59 57 52 52 55 53 53 57 57 57 57
40 47 33 34 37 33 41 43 43 46 47 46 44 46 46 48 48 51 56 53 51 51 53 51 50 48 51 57 60 57 54 56 60 58 53 63 65 65 65 64 65 64 65 64 64 65 65 65 64 64 63 64 65 65 65 65 65 65 64 65 63 63 61 60 59 58 57 58 58 58 59 55 56 58 56 58 58 56 57 57 51 52 53 53 57 58
32 33 39 34 34 31 35 47 45 46 46 45 40 42 45 51 54 54 54 50 50 54 53 49 50 50 54 54 56 56 58 64 59 60 61 64 65 66 66 66 65 65 65 64 64 65 65 66 66 64 64 65 65 65 65 65 66 66 64 65 64 64 64 63 60 60 59 60 58 57 56 58 55 56 56 54 56 55 57 58 57 59 63 60 62 60
36 49 38 34 38 35 44 48 55 51 46 45 43 44 51 50 49 51 54 50 54 55 50 47 50 54 54 55 55 56 57 61 59 60 62 63 65 66 66 66 65 65 64 64 64 65 65 65 65 65 65 65 66 66 65 66 65 66 64 65 65 64 64 64 62 61 60 60 57 57 56 55 55 56 58 57 57 55 55 54 57 48 48 52 59 54